Regional Weather Roundup
Issued by NWS

Home | Current Version | Previous Version | Text Only | Print | Product List | Glossary Off
Versions: 1 2 3 4 5 6 7 8 9 10 11 12 13 14 15 16 17 18 19 20 21 22 23 24 25 26 27 28 29 30 31 32 33 34 35 36 37 38 39 40 41 42 43 44 45 46 47 48 49 50

000
ASUS43 KDMX 011507
RWRIA

WEATHER ROUNDUP FOR IOWA
NATIONAL WEATHER SERVICE DES MOINES IA
1000 AM CDT FRI AUG 01 2014

NOTE: "FAIR" INDICATES FEW OR NO CLOUDS BELOW 12,000 FEET WITH NO
SIGNIFICANT WEATHER AND/OR OBSTRUCTIONS TO VISIBILITY.

* - THESE STATIONS ARE NOT NWS STATIONS...THUS NOT UNDER NWS
QUALITY CONTROL.  THEY ALSO DO NOT REPORT WEATHER SUCH
AS PRECIPITATION OR FOG.

IAZ001>003-012>014-020>022-031>034-043>046-011600-
   NORTHWEST IOWA

CITY           SKY/WX    TMP DP  RH WIND       PRES   REMARKS
CARROLL *      SUNNY     72  63  73 CALM      30.11S
CHEROKEE *     SUNNY     70  64  83 CALM      30.11S
DENISON *      SUNNY     70  64  83 CALM      30.09S
LE MARS *      SUNNY     70  63  78 CALM      30.11S
ORANGE CITY *  SUNNY     72  63  73 W3        30.11S
SHELDON *      SUNNY     72  63  73 CALM      30.10S
SIOUX CITY     SUNNY     72  62  71 NW3       30.11R
SPENCER        SUNNY     74  62  66 VRB5      30.11R
STORM LAKE *   SUNNY     70  63  78 CALM      30.12S
$$

IAZ055>058-069>071-079>083-090>094-011600-
   SOUTHWEST IOWA

CITY           SKY/WX    TMP DP  RH WIND       PRES   REMARKS
ATLANTIC *     MOSUNNY   72  64  78 CALM      30.09F
AUDUBON *      MOSUNNY   73  66  78 CALM      30.12S
CLARINDA *     PTSUNNY   66  64  94 CALM      30.10S
COUNCIL BLFS * PTSUNNY   72  66  83 CALM      30.08S
CRESTON *      PTSUNNY   72  61  68 CALM      30.11S
HARLAN  *      MOSUNNY   70  64  83 CALM      30.13F
LAMONI         MOSUNNY   72  61  68 VRB3      30.11S
RED OAK *      CLOUDY    70  64  83 E3        30.09S
SHENANDOAH *   MOSUNNY   72  64  78 SE10      30.08S
$$

IAZ047>049-059>061-072>074-084-011600-
   CENTRAL IOWA

CITY           SKY/WX    TMP DP  RH WIND       PRES   REMARKS
AMES           SUNNY     73  60  63 CALM      30.10S
ANKENY *       SUNNY     73  61  64 CALM      30.10S
CHARITON *     MOSUNNY   73  63  68 N6        30.10S
DES MOINES     MOSUNNY   75  61  61 CALM      30.09S
GRINNELL*      SUNNY     73  63  68 CALM      30.11S
KNOXVILLE *    SUNNY     72  61  68 N5        30.09S
MARSHALLTOWN   SUNNY     72  64  76 NW3       30.10R
PELLA *        SUNNY     75  63  64 CALM      30.11S
PERRY *          N/A     72  61  68 CALM      30.10S
$$

IAZ004>006-015-016-023>025-035-036-011600-
   NORTH CENTRAL IOWA

CITY           SKY/WX    TMP DP  RH WIND       PRES   REMARKS
ALGONA *       SUNNY     73  61  64 CALM      30.10S
CLARION *      SUNNY     72  61  68 CALM      30.10F
ESTHERVILLE    SUNNY     71  63  75 NW6       30.10S
FORT DODGE *   SUNNY     72  61  68 CALM      30.11S
MASON CITY     SUNNY     74  63  68 NW3       30.11S
FOREST CITY *  SUNNY     72  64  78 W3        30.10S
IOWA FALLS *     N/A     72  63  73 CALM      30.11F
$$

IAZ007>011-017>019-026>030-037>042-050>054-066-011600-
   NORTHEAST IOWA

CITY           SKY/WX    TMP DP  RH WIND       PRES   REMARKS
CEDAR RAPIDS   SUNNY     75  63  66 CALM      30.08S
CHARLES CITY * SUNNY     72  64  78 CALM      30.11R
CLINTON *      SUNNY     73  63  68 SW5       30.12S
DECORAH *      SUNNY     73  59  60 CALM      30.09S
DUBUQUE        SUNNY     75  61  61 NW3       30.10S
MONTICELLO *   SUNNY     73  63  68 CALM      30.09F
OELWEIN *      SUNNY     73  64  73 VRB3      30.11R
WATERLOO       SUNNY     75  62  64 VRB3      30.09R
$$

IAZ064-065-067-068-078-011600-
   EAST CENTRAL IOWA

CITY           SKY/WX    TMP DP  RH WIND       PRES   REMARKS
DAVENPORT      SUNNY     75  61  61 VRB7      30.10R
IOWA CITY      SUNNY     74  66  76 SE5       30.10S
MT. PLEASANT * SUNNY     77  63  61 SE5       30.09F
MUSCATINE *    PTSUNNY   75  64  69 SE8       30.09S
QUAD CITIES    SUNNY     75  63  66 SW7       30.09S
$$

IAZ062-063-075>077-085>089-095>099-011600-
   SOUTHEAST IOWA

CITY           SKY/WX    TMP DP  RH WIND       PRES   REMARKS
BURLINGTON     MOSUNNY   73  63  70 SE7       30.09S
FAIRFIELD *    SUNNY     73  64  73 CALM      30.09S
FORT MADISON * SUNNY     75  66  73 CALM      30.10S
KEOKUK *       SUNNY     73  66  78 CALM      30.09S
OSKALOOSA *      N/A     73  64  73 N5        30.09F
CENTERVILLE *  SUNNY     73  63  68 W7        30.12R
OTTUMWA        SUNNY     74  63  68 N7        30.09S
WASHINGTON *   SUNNY     73  66  78 NE5       30.09S
$$

ABBREVIATIONS USED IN REMARKS
   TC - TEMPERATURES IN CELSIUS
  WCI - WIND CHILL INDEX
   HX - HEAT INDEX
  VSB - VISIBILITY
$$




USA.gov is the U.S. government's official web portal to all federal, state and local government web resources and services.